Weather History for Heidelberg, Germany

Change the Weather History Date:

Tuesday, May 8, 2012

  Actual Average Record
Temperature  
Mean Temperature 58 °F -  
Max Temperature 71 °F - - ()
Min Temperature 45 °F - - ()
Degree Days  
Heating Degree Days 7    
Growing Degree Days 8 (Base 50)    
Moisture  
Dew Point 48 °F    
Average Humidity 70    
Maximum Humidity 96    
Minimum Humidity 40    
Precipitation  
Precipitation 0.00 in - - ()
Sea Level Pressure  
Sea Level Pressure 29.96 in    
Wind  
Wind Speed 4 mph ()    
Max Wind Speed 20 mph    
Max Gust Speed 28 mph    
Visibility 6.2 miles    
Events Rain    
T = Trace of Precipitation, MM = Missing Value Source: Averaged Metar Reports

Daily Weather History Graph

Daily Weather History Graph

Search for Another Location

Airport:

Trip Planner

Search our weather history database for the weather conditions in past years. The results will help you decide how hot, cold, wet, or windy it might be!

Date:

Astronomy

May. 08, 2012 Rise Set
Actual Time 5:51 AM CEST 8:53 PM CEST
Civil Twilight 5:14 AM CEST 9:30 PM CEST
Nautical Twilight 4:25 AM CEST 10:19 PM CEST
Astronomical Twilight 3:25 AM CEST 11:20 PM CEST
Moon 11:56 PM CEST (5/8) 7:32 AM CEST (5/8)
Length of Visible Light 16h 16m
Length of Day
15h 01m
Waning Gibbous, 92% of the Moon is Illuminated
May 8
Waning Gibbous
May 12
Last Quarter
May 21
New
May 28
First Quarter
Jun 4
Full

Hourly Weather History & Observations

Time (CEST) Temp. Dew Point Humidity Pressure Visibility Wind Dir Wind Speed Gust Speed Precip Events Conditions
12:55 AM 49.5 °F 47.1 °F 92% 30.04 in 6.2 mi ENE 3.5 mph - N/A   Clear
1:55 AM 50.0 °F 46.2 °F 87% 30.03 in 6.2 mi NE 3.5 mph - N/A   Mostly Cloudy
2:55 AM 47.5 °F 46.2 °F 95% 30.02 in 6.2 mi WSW 3.5 mph - N/A   Mostly Cloudy
3:55 AM 47.3 °F 45.7 °F 94% 30.01 in 6.2 mi West 3.5 mph - N/A   Mostly Cloudy
4:55 AM 48.4 °F 46.6 °F 93% 30.01 in 6.2 mi East 2.3 mph - N/A   Scattered Clouds
5:55 AM 45.0 °F 43.9 °F 96% 30.01 in 6.2 mi West 2.3 mph - N/A   Partly Cloudy
6:55 AM 47.3 °F 45.9 °F 95% 30.01 in 6.2 mi SSE 1.2 mph - N/A   Mostly Cloudy
7:55 AM 50.2 °F 47.8 °F 92% 30.00 in 6.2 mi SW 2.3 mph - N/A   Partly Cloudy
8:55 AM 55.6 °F 50.4 °F 83% 30.00 in 6.2 mi South 6.9 mph - N/A   Clear
9:55 AM 57.9 °F 50.7 °F 77% 29.99 in 6.2 mi Variable 4.6 mph - N/A   Clear
10:55 AM 61.2 °F 50.4 °F 68% 29.97 in 6.2 mi Variable 3.5 mph - N/A   Clear
11:55 AM 64.0 °F 46.2 °F 52% 29.96 in 6.2 mi South 3.5 mph - N/A   Clear
12:55 PM 66.7 °F 45.1 °F 46% 29.94 in 6.2 mi Variable 3.5 mph - N/A   Clear
1:55 PM 68.4 °F 45.9 °F 44% 29.93 in 6.2 mi Variable 2.3 mph - N/A   Clear
2:55 PM 70.5 °F 44.8 °F 40% 29.92 in 6.2 mi SW 12.7 mph - N/A   Clear
3:55 PM 71.1 °F 45.7 °F 40% 29.90 in 6.2 mi SW 9.2 mph 19.6 mph N/A   Clear
4:55 PM 69.4 °F 46.6 °F 44% 29.89 in 6.2 mi SW 11.5 mph - N/A   Partly Cloudy
5:55 PM 68.4 °F 48.9 °F 50% 29.90 in 6.2 mi SW 6.9 mph - N/A   Mostly Cloudy
6:55 PM 68.2 °F 49.5 °F 51% 29.90 in 6.2 mi SSW 8.1 mph - N/A   Mostly Cloudy
7:55 PM 66.7 °F 48.0 °F 51% 29.91 in 6.2 mi SW 19.6 mph 27.6 mph N/A   Mostly Cloudy
8:55 PM 62.1 °F 51.3 °F 68% 29.94 in 6.2 mi SW 8.1 mph - N/A Rain Light Rain Showers
9:55 PM 60.4 °F 51.8 °F 73% 29.94 in 6.2 mi South 4.6 mph - N/A Rain Light Rain Showers
10:55 PM 60.1 °F 52.5 °F 76% 29.94 in 6.2 mi SSE 6.9 mph - N/A Rain Light Rain Showers
11:55 PM 60.4 °F 52.0 °F 74% 29.93 in 6.2 mi SSE 5.8 mph - N/A Rain Light Rain Showers